Time,TemperatureF,DewpointF,PressureIn,WindDirection,WindDirectionDegrees,WindSpeedMPH,WindSpeedGustMPH,Humidity,HourlyPrecipIn,Conditions,Clouds,dailyrainin,SoftwareType,DateUTC
2013-10-17 00:01:00,61.7,59.3,30.03,NNE,18,0.0,3.0,92,0.00,,,0.00,WUHU216DAVISVP2,2013-10-17 05:01:00,
2013-10-17 00:06:00,61.7,59.3,30.03,NNE,18,0.0,2.0,92,0.00,,,0.00,WUHU216DAVISVP2,2013-10-17 05:06:00,
2013-10-17 00:11:00,61.7,59.6,30.03,NNE,18,0.0,1.0,93,0.00,,,0.00,WUHU216DAVISVP2,2013-10-17 05:11:00,
2013-10-17 00:16:00,61.7,59.7,30.03,NNE,18,0.0,1.4,93,0.00,,,0.00,WUHU216DAVISVP2,2013-10-17 05:16:00,
2013-10-17 00:21:00,61.8,59.7,30.03,NNE,22,0.0,3.0,93,0.00,,,0.00,WUHU216DAVISVP2,2013-10-17 05:21:00,
2013-10-17 00:26:00,61.8,59.7,30.03,NNE,24,0.0,4.1,93,0.00,,,0.00,WUHU216DAVISVP2,2013-10-17 05:26:00,
2013-10-17 00:31:00,61.8,59.4,30.02,NNE,22,1.4,4.1,92,0.00,,,0.00,WUHU216DAVISVP2,2013-10-17 05:31:00,
2013-10-17 00:36:00,61.8,59.4,30.03,NNE,23,0.0,4.1,92,0.00,,,0.00,WUHU216DAVISVP2,2013-10-17 05:36:00,
2013-10-17 00:41:00,61.7,59.6,30.03,NNE,23,0.0,4.1,93,0.00,,,0.00,WUHU216DAVISVP2,2013-10-17 05:41:00,
2013-10-17 00:46:00,61.7,59.3,30.04,NNE,23,0.0,3.0,92,0.00,,,0.00,WUHU216DAVISVP2,2013-10-17 05:46:00,
2013-10-17 00:51:00,61.7,59.3,30.04,NNE,23,0.0,2.0,92,0.00,,,0.00,WUHU216DAVISVP2,2013-10-17 05:51:00,
2013-10-17 00:56:00,61.7,59.4,30.04,NNE,23,0.0,1.4,92,0.00,,,0.00,WUHU216DAVISVP2,2013-10-17 05:56:00,
2013-10-17 01:01:00,61.8,59.8,30.04,NNE,23,2.7,3.0,93,0.00,,,0.00,WUHU216DAVISVP2,2013-10-17 06:01:00,
2013-10-17 01:06:00,61.9,59.5,30.04,NNE,23,0.0,3.0,92,0.00,,,0.00,WUHU216DAVISVP2,2013-10-17 06:06:00,
2013-10-17 01:11:00,61.9,59.8,30.04,NNE,23,0.0,3.0,93,0.00,,,0.00,WUHU216DAVISVP2,2013-10-17 06:11:00,
2013-10-17 01:16:00,62.0,59.9,30.04,NNE,23,0.0,3.0,93,0.00,,,0.00,WUHU216DAVISVP2,2013-10-17 06:16:00,
2013-10-17 01:21:00,61.9,59.8,30.04,NNE,23,0.0,2.7,93,0.00,,,0.00,WUHU216DAVISVP2,2013-10-17 06:21:00,
2013-10-17 01:26:00,62.0,59.9,30.04,NNE,23,0.0,2.0,93,0.00,,,0.00,WUHU216DAVISVP2,2013-10-17 06:26:00,
2013-10-17 01:31:00,62.0,59.9,30.04,NNE,23,0.0,2.0,93,0.00,,,0.00,WUHU216DAVISVP2,2013-10-17 06:31:00,
2013-10-17 01:36:00,62.0,59.9,30.04,NNE,23,0.0,0.0,93,0.00,,,0.00,WUHU216DAVISVP2,2013-10-17 06:36:00,
2013-10-17 01:41:00,61.9,59.8,30.04,NNE,23,0.0,0.0,93,0.00,,,0.00,WUHU216DAVISVP2,2013-10-17 06:41:00,
2013-10-17 01:46:00,61.9,59.5,30.04,NNE,24,0.0,0.0,92,0.00,,,0.00,WUHU216DAVISVP2,2013-10-17 06:46:00,
2013-10-17 01:51:00,61.8,59.4,30.04,NNE,24,0.0,0.0,92,0.00,,,0.00,WUHU216DAVISVP2,2013-10-17 06:51:00,
2013-10-17 01:56:00,61.7,59.3,30.04,NNE,24,0.0,0.0,92,0.00,,,0.00,WUHU216DAVISVP2,2013-10-17 06:56:00,
2013-10-17 02:01:00,61.7,59.3,30.04,NNE,24,0.0,0.0,92,0.00,,,0.00,WUHU216DAVISVP2,2013-10-17 07:01:00,
2013-10-17 02:06:00,61.6,59.5,30.04,NNE,24,0.0,0.0,93,0.00,,,0.00,WUHU216DAVISVP2,2013-10-17 07:06:00,
2013-10-17 02:11:00,61.6,59.5,30.04,NNE,24,0.0,0.0,93,0.00,,,0.00,WUHU216DAVISVP2,2013-10-17 07:11:00,
2013-10-17 02:16:00,61.6,59.5,30.03,NNE,24,0.0,0.0,93,0.00,,,0.00,WUHU216DAVISVP2,2013-10-17 07:16:00,
2013-10-17 02:21:00,61.4,59.3,30.03,North,358,0.0,4.1,93,0.00,,,0.00,WUHU216DAVISVP2,2013-10-17 07:21:00,
2013-10-17 02:26:00,61.3,58.9,30.04,North,358,0.0,4.1,92,0.00,,,0.00,WUHU216DAVISVP2,2013-10-17 07:26:00,
2013-10-17 02:31:00,61.2,58.8,30.04,North,358,0.0,3.0,92,0.00,,,0.00,WUHU216DAVISVP2,2013-10-17 07:31:00,
2013-10-17 02:36:00,61.1,58.7,30.03,North,358,0.0,3.0,92,0.00,,,0.00,WUHU216DAVISVP2,2013-10-17 07:36:00,
2013-10-17 02:41:00,61.1,58.7,30.03,North,358,0.0,1.0,92,0.00,,,0.00,WUHU216DAVISVP2,2013-10-17 07:41:00,
2013-10-17 02:46:00,61.0,58.9,30.03,North,358,0.0,1.0,93,0.00,,,0.00,WUHU216DAVISVP2,2013-10-17 07:46:00,
2013-10-17 02:51:00,60.8,58.7,30.03,North,358,0.0,1.0,93,0.00,,,0.00,WUHU216DAVISVP2,2013-10-17 07:51:00,
2013-10-17 02:56:00,60.7,58.6,30.03,North,358,0.0,1.4,93,0.00,,,0.00,WUHU216DAVISVP2,2013-10-17 07:56:00,
2013-10-17 03:01:00,60.5,58.5,30.03,North,358,0.0,1.4,93,0.00,,,0.00,WUHU216DAVISVP2,2013-10-17 08:01:00,
2013-10-17 03:07:00,60.3,58.3,30.03,North,358,0.0,1.0,93,0.00,,,0.00,WUHU216DAVISVP2,2013-10-17 08:07:00,
2013-10-17 03:08:00,60.3,58.3,30.03,North,358,0.0,1.0,93,0.00,,,0.00,WUHU216DAVISVP2,2013-10-17 08:08:00,
2013-10-17 03:13:00,60.2,58.2,30.03,North,358,0.0,1.0,93,0.00,,,0.00,WUHU216DAVISVP2,2013-10-17 08:13:00,
2013-10-17 03:18:00,60.1,58.3,30.03,North,358,0.0,0.0,94,0.00,,,0.00,WUHU216DAVISVP2,2013-10-17 08:18:00,
2013-10-17 03:23:00,59.9,58.1,30.03,North,358,0.0,0.0,94,0.00,,,0.00,WUHU216DAVISVP2,2013-10-17 08:23:00,
2013-10-17 03:28:00,60.0,58.2,30.03,North,358,0.0,0.0,94,0.00,,,0.00,WUHU216DAVISVP2,2013-10-17 08:28:00,
2013-10-17 03:33:00,60.0,58.2,30.02,North,7,2.7,4.1,94,0.00,,,0.00,WUHU216DAVISVP2,2013-10-17 08:33:00,
2013-10-17 03:38:00,60.0,58.2,30.02,NNE,20,2.7,6.8,94,0.00,,,0.00,WUHU216DAVISVP2,2013-10-17 08:38:00,
2013-10-17 03:43:00,59.8,57.8,30.02,NNE,22,4.1,8.1,93,0.00,,,0.00,WUHU216DAVISVP2,2013-10-17 08:43:00,
2013-10-17 03:48:00,59.7,57.4,30.02,NNE,20,6.8,8.1,92,0.00,,,0.00,WUHU216DAVISVP2,2013-10-17 08:48:00,
2013-10-17 03:53:00,59.6,56.9,30.02,NNE,12,8.1,9.4,91,0.00,,,0.00,WUHU216DAVISVP2,2013-10-17 08:53:00,
2013-10-17 03:58:00,59.6,56.6,30.02,NNE,16,2.7,9.4,90,0.00,,,0.00,WUHU216DAVISVP2,2013-10-17 08:58:00,
2013-10-17 04:03:00,59.5,56.5,30.02,NNE,19,5.4,9.4,90,0.00,,,0.00,WUHU216DAVISVP2,2013-10-17 09:03:00,
2013-10-17 04:08:00,59.5,56.5,30.02,NNE,12,5.4,9.4,90,0.00,,,0.00,WUHU216DAVISVP2,2013-10-17 09:08:00,
2013-10-17 04:13:00,59.3,56.1,30.02,NNE,12,6.8,10.8,89,0.00,,,0.00,WUHU216DAVISVP2,2013-10-17 09:13:00,
2013-10-17 04:18:00,59.2,55.7,30.02,NNE,24,8.1,10.8,88,0.00,,,0.00,WUHU216DAVISVP2,2013-10-17 09:18:00,
2013-10-17 04:23:00,59.1,55.8,30.01,NNE,16,2.7,9.4,89,0.00,,,0.00,WUHU216DAVISVP2,2013-10-17 09:23:00,
2013-10-17 04:28:00,59.0,55.7,30.01,North,7,4.1,8.1,89,0.00,,,0.00,WUHU216DAVISVP2,2013-10-17 09:28:00,
2013-10-17 04:33:00,58.8,55.5,30.01,North,7,4.1,8.1,89,0.00,,,0.00,WUHU216DAVISVP2,2013-10-17 09:33:00,
2013-10-17 04:38:00,58.5,55.3,30.01,NNE,17,4.1,8.1,89,0.00,,,0.00,WUHU216DAVISVP2,2013-10-17 09:38:00,
2013-10-17 04:43:00,58.4,55.2,30.01,NNE,22,4.1,8.1,89,0.00,,,0.00,WUHU216DAVISVP2,2013-10-17 09:43:00,
2013-10-17 04:48:00,58.2,55.0,30.01,North,2,5.4,8.1,89,0.00,,,0.00,WUHU216DAVISVP2,2013-10-17 09:48:00,
2013-10-17 04:53:00,58.2,55.2,30.01,North,2,4.1,6.0,90,0.00,,,0.00,WUHU216DAVISVP2,2013-10-17 09:53:00,
2013-10-17 04:58:00,58.1,55.1,30.02,NNE,27,0.0,5.4,90,0.00,,,0.00,WUHU216DAVISVP2,2013-10-17 09:58:00,
2013-10-17 05:03:00,57.9,55.0,30.02,NNW,345,1.4,5.4,90,0.00,,,0.00,WUHU216DAVISVP2,2013-10-17 10:03:00,
2013-10-17 05:08:00,57.7,55.1,30.02,North,2,1.4,6.8,91,0.00,,,0.00,WUHU216DAVISVP2,2013-10-17 10:08:00,
2013-10-17 05:13:00,57.6,54.6,30.02,NNE,12,0.0,6.8,90,0.00,,,0.00,WUHU216DAVISVP2,2013-10-17 10:13:00,
2013-10-17 05:18:00,57.4,54.4,30.02,North,2,1.4,5.4,90,0.00,,,0.00,WUHU216DAVISVP2,2013-10-17 10:18:00,
2013-10-17 05:23:00,57.1,54.2,30.01,NNE,16,1.4,5.4,90,0.00,,,0.00,WUHU216DAVISVP2,2013-10-17 10:23:00,
2013-10-17 05:28:00,57.0,53.8,30.02,North,7,2.7,5.4,89,0.00,,,0.00,WUHU216DAVISVP2,2013-10-17 10:28:00,
2013-10-17 05:33:00,56.9,53.4,30.02,North,356,2.7,5.4,88,0.00,,,0.00,WUHU216DAVISVP2,2013-10-17 10:33:00,
2013-10-17 05:38:00,56.8,53.2,30.02,North,7,2.7,5.4,88,0.00,,,0.00,WUHU216DAVISVP2,2013-10-17 10:38:00,
2013-10-17 05:43:00,56.6,53.1,30.02,North,2,2.7,4.1,88,0.00,,,0.00,WUHU216DAVISVP2,2013-10-17 10:43:00,
2013-10-17 05:48:00,56.4,52.9,30.02,North,2,1.4,4.1,88,0.00,,,0.00,WUHU216DAVISVP2,2013-10-17 10:48:00,
2013-10-17 05:54:00,56.3,52.8,30.02,North,2,0.0,3.0,88,0.00,,,0.00,WUHU216DAVISVP2,2013-10-17 10:54:00,
2013-10-17 05:59:00,56.2,52.6,30.02,North,2,0.0,3.0,88,0.00,,,0.00,WUHU216DAVISVP2,2013-10-17 10:59:00,
2013-10-17 06:04:00,56.0,52.8,30.02,North,2,0.0,3.0,89,0.00,,,0.00,WUHU216DAVISVP2,2013-10-17 11:04:00,
2013-10-17 06:09:00,55.8,52.6,30.02,NNE,24,0.0,4.1,89,0.00,,,0.00,WUHU216DAVISVP2,2013-10-17 11:09:00,
2013-10-17 06:14:00,55.7,52.5,30.02,NNE,16,4.1,4.1,89,0.00,,,0.00,WUHU216DAVISVP2,2013-10-17 11:14:00,
2013-10-17 06:18:00,55.5,52.2,30.03,NNE,16,1.4,4.1,89,0.00,,,0.00,WUHU216DAVISVP2,2013-10-17 11:18:00,
2013-10-17 06:23:00,55.3,52.1,30.03,NNE,17,0.0,4.1,89,0.00,,,0.00,WUHU216DAVISVP2,2013-10-17 11:23:00,
2013-10-17 06:28:00,55.2,52.0,30.03,NNE,24,0.0,4.1,89,0.00,,,0.00,WUHU216DAVISVP2,2013-10-17 11:28:00,
2013-10-17 06:34:00,55.1,51.9,30.03,NNE,24,0.0,3.0,89,0.00,,,0.00,WUHU216DAVISVP2,2013-10-17 11:34:00,
2013-10-17 06:39:00,55.0,51.8,30.03,NNE,24,0.0,3.0,89,0.00,,,0.00,WUHU216DAVISVP2,2013-10-17 11:39:00,
2013-10-17 06:44:00,55.0,52.1,30.03,NNE,24,0.0,3.0,90,0.00,,,0.00,WUHU216DAVISVP2,2013-10-17 11:44:00,
2013-10-17 06:49:00,54.9,52.0,30.03,NNE,23,1.4,3.0,90,0.00,,,0.00,WUHU216DAVISVP2,2013-10-17 11:49:00,
2013-10-17 06:54:00,54.8,51.9,30.03,NNE,23,0.0,2.0,90,0.00,,,0.00,WUHU216DAVISVP2,2013-10-17 11:54:00,
2013-10-17 06:59:00,54.6,51.7,30.04,NNE,23,0.0,1.4,90,0.00,,,0.00,WUHU216DAVISVP2,2013-10-17 11:59:00,
2013-10-17 07:03:00,54.5,51.9,30.04,NNE,23,0.0,1.0,91,0.00,,,0.00,WUHU216DAVISVP2,2013-10-17 12:03:00,
2013-10-17 07:08:00,54.5,51.9,30.04,NNE,24,0.0,1.0,91,0.00,,,0.00,WUHU216DAVISVP2,2013-10-17 12:08:00,
2013-10-17 07:14:00,54.3,51.7,30.04,NNE,24,0.0,2.7,91,0.00,,,0.00,WUHU216DAVISVP2,2013-10-17 12:14:00,
2013-10-17 07:19:00,54.2,51.6,30.04,NNE,24,0.0,2.7,91,0.00,,,0.00,WUHU216DAVISVP2,2013-10-17 12:19:00,
2013-10-17 07:24:00,54.1,51.5,30.04,NNE,23,1.4,2.0,91,0.00,,,0.00,WUHU216DAVISVP2,2013-10-17 12:24:00,
2013-10-17 07:29:00,54.0,51.4,30.04,NNE,12,1.4,2.7,91,0.00,,,0.00,WUHU216DAVISVP2,2013-10-17 12:29:00,
2013-10-17 07:34:00,53.9,51.3,30.04,North,2,0.0,4.1,91,0.00,,,0.00,WUHU216DAVISVP2,2013-10-17 12:34:00,
2013-10-17 07:39:00,53.9,51.3,30.04,NNW,329,1.4,4.1,91,0.00,,,0.00,WUHU216DAVISVP2,2013-10-17 12:39:00,
2013-10-17 07:44:00,53.9,51.0,30.04,NNW,342,4.1,5.4,90,0.00,,,0.00,WUHU216DAVISVP2,2013-10-17 12:44:00,
2013-10-17 07:49:00,53.9,51.0,30.04,NNW,339,4.1,5.4,90,0.00,,,0.00,WUHU216DAVISVP2,2013-10-17 12:49:00,
2013-10-17 07:54:00,54.0,51.1,30.04,North,351,2.7,6.8,90,0.00,,,0.00,WUHU216DAVISVP2,2013-10-17 12:54:00,
2013-10-17 07:59:00,54.2,51.3,30.04,North,354,2.7,6.8,90,0.00,,,0.00,WUHU216DAVISVP2,2013-10-17 12:59:00,
2013-10-17 08:04:00,54.5,51.6,30.05,North,2,2.7,6.8,90,0.00,,,0.00,WUHU216DAVISVP2,2013-10-17 13:04:00,
2013-10-17 08:09:00,54.7,51.5,30.05,NNW,327,4.1,8.1,89,0.00,,,0.00,WUHU216DAVISVP2,2013-10-17 13:09:00,
2013-10-17 08:14:00,55.2,51.7,30.05,North,353,5.4,8.1,88,0.00,,,0.00,WUHU216DAVISVP2,2013-10-17 13:14:00,
2013-10-17 08:19:00,55.6,51.8,30.05,NNW,345,8.1,8.1,87,0.00,,,0.00,WUHU216DAVISVP2,2013-10-17 13:19:00,
2013-10-17 08:24:00,55.8,51.7,30.06,North,358,2.7,9.4,86,0.00,,,0.00,WUHU216DAVISVP2,2013-10-17 13:24:00,
2013-10-17 08:29:00,55.9,51.5,30.06,North,349,4.1,9.4,85,0.00,,,0.00,WUHU216DAVISVP2,2013-10-17 13:29:00,
2013-10-17 08:34:00,56.0,51.6,30.06,NNW,345,9.4,9.4,85,0.00,,,0.00,WUHU216DAVISVP2,2013-10-17 13:34:00,
2013-10-17 08:39:00,56.3,51.8,30.06,NE,43,9.4,9.4,85,0.00,,,0.00,WUHU216DAVISVP2,2013-10-17 13:39:00,
2013-10-17 08:44:00,56.4,51.9,30.06,NNE,17,6.8,9.4,85,0.00,,,0.00,WUHU216DAVISVP2,2013-10-17 13:44:00,
2013-10-17 08:49:00,56.6,51.8,30.07,North,7,5.4,9.4,84,0.00,,,0.00,WUHU216DAVISVP2,2013-10-17 13:49:00,
2013-10-17 08:54:00,56.8,51.4,30.07,NNW,343,5.4,9.4,82,0.00,,,0.00,WUHU216DAVISVP2,2013-10-17 13:54:00,
2013-10-17 08:59:00,57.1,51.7,30.07,NNE,25,6.8,9.4,82,0.00,,,0.00,WUHU216DAVISVP2,2013-10-17 13:59:00,
2013-10-17 09:04:00,57.4,51.3,30.07,North,350,2.7,10.8,80,0.00,,,0.00,WUHU216DAVISVP2,2013-10-17 14:04:00,
2013-10-17 09:09:00,57.7,52.0,30.08,NE,40,8.1,10.8,81,0.00,,,0.00,WUHU216DAVISVP2,2013-10-17 14:09:00,
2013-10-17 09:14:00,57.9,51.8,30.08,NNE,25,5.4,10.8,80,0.00,,,0.00,WUHU216DAVISVP2,2013-10-17 14:14:00,
2013-10-17 09:19:00,58.2,52.1,30.08,NNE,17,5.4,10.8,80,0.00,,,0.00,WUHU216DAVISVP2,2013-10-17 14:19:00,
2013-10-17 09:24:00,58.5,51.7,30.08,North,2,6.8,12.1,78,0.00,,,0.00,WUHU216DAVISVP2,2013-10-17 14:24:00,
2013-10-17 09:29:00,58.7,52.3,30.08,NNE,26,8.1,12.1,79,0.00,,,0.00,WUHU216DAVISVP2,2013-10-17 14:29:00,
2013-10-17 09:34:00,58.9,52.1,30.08,NE,43,5.4,10.8,78,0.00,,,0.00,WUHU216DAVISVP2,2013-10-17 14:34:00,
2013-10-17 09:39:00,59.5,51.7,30.09,North,7,9.4,14.9,75,0.00,,,0.00,WUHU216DAVISVP2,2013-10-17 14:39:00,
2013-10-17 09:44:00,59.7,52.2,30.09,NNE,16,9.4,14.9,76,0.00,,,0.00,WUHU216DAVISVP2,2013-10-17 14:44:00,
2013-10-17 09:49:00,60.1,51.9,30.09,North,7,9.4,14.9,74,0.00,,,0.00,WUHU216DAVISVP2,2013-10-17 14:49:00,
2013-10-17 09:54:00,60.2,52.2,30.09,NNE,12,12.1,14.9,75,0.00,,,0.00,WUHU216DAVISVP2,2013-10-17 14:54:00,
2013-10-17 09:59:00,60.5,51.8,30.09,NNE,12,10.8,16.2,73,0.00,,,0.00,WUHU216DAVISVP2,2013-10-17 14:59:00,
2013-10-17 10:04:00,60.6,51.7,30.09,NNE,18,10.8,16.2,72,0.00,,,0.00,WUHU216DAVISVP2,2013-10-17 15:04:00,
2013-10-17 10:09:00,60.7,52.5,30.09,NNE,16,4.1,14.9,74,0.00,,,0.00,WUHU216DAVISVP2,2013-10-17 15:09:00,
2013-10-17 10:14:00,60.9,51.9,30.09,North,356,4.1,12.1,72,0.00,,,0.00,WUHU216DAVISVP2,2013-10-17 15:14:00,
2013-10-17 10:19:00,61.4,51.7,30.10,NNE,21,10.8,16.2,70,0.00,,,0.00,WUHU216DAVISVP2,2013-10-17 15:19:00,
2013-10-17 10:24:00,61.7,52.3,30.09,NNE,26,5.4,16.2,71,0.00,,,0.00,WUHU216DAVISVP2,2013-10-17 15:24:00,
2013-10-17 10:29:00,62.1,53.1,30.10,North,358,6.8,13.0,72,0.00,,,0.00,WUHU216DAVISVP2,2013-10-17 15:29:00,
2013-10-17 10:34:00,62.3,52.9,30.10,NNE,18,10.8,13.5,71,0.00,,,0.00,WUHU216DAVISVP2,2013-10-17 15:34:00,
2013-10-17 10:39:00,62.6,53.2,30.09,North,2,10.8,13.5,71,0.00,,,0.00,WUHU216DAVISVP2,2013-10-17 15:39:00,
2013-10-17 10:44:00,62.9,53.1,30.10,NNE,31,6.8,13.5,70,0.00,,,0.00,WUHU216DAVISVP2,2013-10-17 15:44:00,
2013-10-17 10:49:00,63.2,53.0,30.10,NE,35,8.1,14.9,69,0.00,,,0.00,WUHU216DAVISVP2,2013-10-17 15:49:00,
2013-10-17 10:54:00,63.4,53.2,30.09,NE,53,6.8,14.9,69,0.00,,,0.00,WUHU216DAVISVP2,2013-10-17 15:54:00,
2013-10-17 10:59:00,63.7,52.7,30.09,NNE,30,12.1,13.5,67,0.00,,,0.00,WUHU216DAVISVP2,2013-10-17 15:59:00,
2013-10-17 11:04:00,64.1,53.5,30.09,NNE,18,10.8,13.5,68,0.00,,,0.00,WUHU216DAVISVP2,2013-10-17 16:04:00,
2013-10-17 11:09:00,64.2,52.4,30.09,NNE,24,6.8,14.9,65,0.00,,,0.00,WUHU216DAVISVP2,2013-10-17 16:09:00,
2013-10-17 11:14:00,64.3,52.9,30.09,North,7,5.4,14.9,66,0.00,,,0.00,WUHU216DAVISVP2,2013-10-17 16:14:00,
2013-10-17 11:19:00,64.7,53.2,30.09,NE,34,10.8,16.2,66,0.00,,,0.00,WUHU216DAVISVP2,2013-10-17 16:19:00,
2013-10-17 11:24:00,65.0,53.1,30.09,NNE,16,6.8,16.2,65,0.00,,,0.00,WUHU216DAVISVP2,2013-10-17 16:24:00,
2013-10-17 11:29:00,65.4,53.9,30.09,ENE,67,10.8,14.9,66,0.00,,,0.00,WUHU216DAVISVP2,2013-10-17 16:29:00,
2013-10-17 11:34:00,65.8,53.5,30.09,North,355,6.8,14.9,64,0.00,,,0.00,WUHU216DAVISVP2,2013-10-17 16:34:00,
2013-10-17 11:39:00,66.2,54.3,30.09,NE,37,8.1,14.9,65,0.00,,,0.00,WUHU216DAVISVP2,2013-10-17 16:39:00,
2013-10-17 11:44:00,66.6,54.2,30.08,NNE,33,2.7,14.9,64,0.00,,,0.00,WUHU216DAVISVP2,2013-10-17 16:44:00,
2013-10-17 11:50:00,67.1,54.1,30.08,NNE,24,5.4,14.9,63,0.00,,,0.00,WUHU216DAVISVP2,2013-10-17 16:50:00,
2013-10-17 11:55:00,67.7,55.5,30.08,NNE,17,4.1,13.5,65,0.00,,,0.00,WUHU216DAVISVP2,2013-10-17 16:55:00,
2013-10-17 12:00:00,68.4,54.9,30.08,NNW,347,5.4,13.5,62,0.00,,,0.00,WUHU216DAVISVP2,2013-10-17 17:00:00,
2013-10-17 12:05:00,68.5,53.6,30.07,NE,34,6.8,13.5,59,0.00,,,0.00,WUHU216DAVISVP2,2013-10-17 17:05:00,
2013-10-17 12:10:00,68.6,54.8,30.07,NE,36,0.0,12.1,61,0.00,,,0.00,WUHU216DAVISVP2,2013-10-17 17:10:00,
2013-10-17 12:15:00,69.1,54.8,30.07,ENE,75,4.1,12.1,60,0.00,,,0.00,WUHU216DAVISVP2,2013-10-17 17:15:00,
2013-10-17 12:20:00,69.2,53.0,30.07,ENE,60,4.1,12.1,56,0.00,,,0.00,WUHU216DAVISVP2,2013-10-17 17:20:00,
2013-10-17 12:25:00,69.1,54.3,30.07,NE,54,2.7,14.9,59,0.00,,,0.00,WUHU216DAVISVP2,2013-10-17 17:25:00,
2013-10-17 12:30:00,69.4,53.2,30.06,NNE,17,4.1,14.9,56,0.00,,,0.00,WUHU216DAVISVP2,2013-10-17 17:30:00,
2013-10-17 12:35:00,69.5,54.2,30.06,NE,47,1.4,13.5,58,0.00,,,0.00,WUHU216DAVISVP2,2013-10-17 17:35:00,
2013-10-17 12:40:00,69.8,54.0,30.06,ENE,60,6.8,13.5,57,0.00,,,0.00,WUHU216DAVISVP2,2013-10-17 17:40:00,
2013-10-17 12:45:00,69.7,52.4,30.06,NNE,21,10.8,13.5,54,0.00,,,0.00,WUHU216DAVISVP2,2013-10-17 17:45:00,
2013-10-17 12:50:00,69.7,54.4,30.05,NNE,23,6.8,13.5,58,0.00,,,0.00,WUHU216DAVISVP2,2013-10-17 17:50:00,
2013-10-17 12:55:00,70.1,53.8,30.05,ENE,57,5.4,16.2,56,0.00,,,0.00,WUHU216DAVISVP2,2013-10-17 17:55:00,
2013-10-17 13:00:00,70.2,53.9,30.05,ENE,72,5.4,16.2,56,0.00,,,0.00,WUHU216DAVISVP2,2013-10-17 18:00:00,
2013-10-17 13:05:00,70.2,52.8,30.04,NE,43,10.8,14.9,54,0.00,,,0.00,WUHU216DAVISVP2,2013-10-17 18:05:00,
2013-10-17 13:10:00,70.1,51.7,30.04,East,81,0.0,14.9,52,0.00,,,0.00,WUHU216DAVISVP2,2013-10-17 18:10:00,
2013-10-17 13:15:00,69.9,52.1,30.04,North,355,10.8,13.5,53,0.00,,,0.00,WUHU216DAVISVP2,2013-10-17 18:15:00,
2013-10-17 13:20:00,69.9,53.1,30.03,NNE,26,8.1,13.5,55,0.00,,,0.00,WUHU216DAVISVP2,2013-10-17 18:20:00,
2013-10-17 13:25:00,70.2,54.4,30.03,NE,35,5.4,13.5,57,0.00,,,0.00,WUHU216DAVISVP2,2013-10-17 18:25:00,
2013-10-17 13:30:00,70.5,52.7,30.03,North,7,9.4,13.5,53,0.00,,,0.00,WUHU216DAVISVP2,2013-10-17 18:30:00,
2013-10-17 13:35:00,70.7,53.4,30.03,NE,47,5.4,12.1,54,0.00,,,0.00,WUHU216DAVISVP2,2013-10-17 18:35:00,
2013-10-17 13:40:00,70.7,54.9,30.02,ENE,62,4.1,12.1,57,0.00,,,0.00,WUHU216DAVISVP2,2013-10-17 18:40:00,
2013-10-17 13:45:00,70.8,54.5,30.02,NE,37,4.1,13.5,56,0.00,,,0.00,WUHU216DAVISVP2,2013-10-17 18:45:00,
2013-10-17 13:50:00,70.9,55.1,30.02,ENE,58,2.7,13.5,57,0.00,,,0.00,WUHU216DAVISVP2,2013-10-17 18:50:00,
2013-10-17 13:55:00,71.1,54.2,30.01,ENE,66,6.8,12.1,55,0.00,,,0.00,WUHU216DAVISVP2,2013-10-17 18:55:00,
2013-10-17 14:00:00,71.4,55.0,30.01,NE,49,5.4,10.0,56,0.00,,,0.00,WUHU216DAVISVP2,2013-10-17 19:00:00,
2013-10-17 14:05:00,71.5,55.1,30.01,NNE,31,6.8,13.5,56,0.00,,,0.00,WUHU216DAVISVP2,2013-10-17 19:05:00,
2013-10-17 14:10:00,71.6,54.6,30.00,NNE,23,9.4,13.5,55,0.00,,,0.00,WUHU216DAVISVP2,2013-10-17 19:10:00,
2013-10-17 14:15:00,71.7,54.2,30.00,NNE,19,5.4,13.5,54,0.00,,,0.00,WUHU216DAVISVP2,2013-10-17 19:15:00,
2013-10-17 14:20:00,71.9,54.9,30.00,ENE,57,2.7,12.1,55,0.00,,,0.00,WUHU216DAVISVP2,2013-10-17 19:20:00,
2013-10-17 14:25:00,72.0,54.6,30.00,NNE,30,8.1,11.0,54,0.00,,,0.00,WUHU216DAVISVP2,2013-10-17 19:25:00,
2013-10-17 14:30:00,72.4,54.4,30.00,NE,53,2.7,10.8,53,0.00,,,0.00,WUHU216DAVISVP2,2013-10-17 19:30:00,
2013-10-17 14:31:00,72.4,54.4,29.99,NE,54,8.1,14.9,53,0.00,,,0.00,WUHU216DAVISVP2,2013-10-17 19:31:00,
2013-10-17 14:36:00,72.1,53.1,29.99,ENE,65,1.4,14.9,51,0.00,,,0.00,WUHU216DAVISVP2,2013-10-17 19:36:00,
2013-10-17 14:41:00,72.0,55.1,29.99,NNE,33,4.1,13.5,55,0.00,,,0.00,WUHU216DAVISVP2,2013-10-17 19:41:00,
2013-10-17 14:46:00,72.1,54.7,29.99,NE,43,4.1,12.1,54,0.00,,,0.00,WUHU216DAVISVP2,2013-10-17 19:46:00,
2013-10-17 14:51:00,72.3,53.2,29.99,East,95,2.7,10.0,51,0.00,,,0.00,WUHU216DAVISVP2,2013-10-17 19:51:00,
2013-10-17 14:56:00,72.0,53.5,29.98,NE,50,0.0,10.8,52,0.00,,,0.00,WUHU216DAVISVP2,2013-10-17 19:56:00,
2013-10-17 15:01:00,72.1,55.7,29.98,NE,44,4.1,10.8,56,0.00,,,0.00,WUHU216DAVISVP2,2013-10-17 20:01:00,
2013-10-17 15:06:00,72.3,53.2,29.98,NNE,33,5.4,13.5,51,0.00,,,0.00,WUHU216DAVISVP2,2013-10-17 20:06:00,
2013-10-17 15:11:00,72.3,54.3,29.98,East,95,2.7,13.5,53,0.00,,,0.00,WUHU216DAVISVP2,2013-10-17 20:11:00,
2013-10-17 15:16:00,72.2,54.2,29.98,NE,46,1.4,10.0,53,0.00,,,0.00,WUHU216DAVISVP2,2013-10-17 20:16:00,
2013-10-17 15:21:00,72.2,55.1,29.97,NE,51,1.4,10.0,55,0.00,,,0.00,WUHU216DAVISVP2,2013-10-17 20:21:00,
2013-10-17 15:26:00,72.4,53.9,29.97,ENE,60,4.1,8.1,52,0.00,,,0.00,WUHU216DAVISVP2,2013-10-17 20:26:00,
2013-10-17 15:31:00,72.6,54.1,29.97,ENE,57,0.0,8.1,52,0.00,,,0.00,WUHU216DAVISVP2,2013-10-17 20:31:00,
2013-10-17 15:36:00,72.6,54.1,29.97,ENE,62,2.7,8.1,52,0.00,,,0.00,WUHU216DAVISVP2,2013-10-17 20:36:00,
2013-10-17 15:41:00,72.8,53.1,29.97,East,101,4.1,7.0,50,0.00,,,0.00,WUHU216DAVISVP2,2013-10-17 20:41:00,
2013-10-17 15:46:00,72.8,53.7,29.97,NNE,20,2.7,6.0,51,0.00,,,0.00,WUHU216DAVISVP2,2013-10-17 20:46:00,
2013-10-17 15:51:00,73.0,53.3,29.96,East,86,1.4,9.4,50,0.00,,,0.00,WUHU216DAVISVP2,2013-10-17 20:51:00,
2013-10-17 15:56:00,73.1,54.5,29.96,NE,51,1.4,9.4,52,0.00,,,0.00,WUHU216DAVISVP2,2013-10-17 20:56:00,
2013-10-17 16:01:00,73.2,54.6,29.96,ENE,62,5.4,10.8,52,0.00,,,0.00,WUHU216DAVISVP2,2013-10-17 21:01:00,
2013-10-17 16:06:00,73.4,53.7,29.96,NE,45,0.0,10.8,50,0.00,,,0.00,WUHU216DAVISVP2,2013-10-17 21:06:00,
2013-10-17 16:11:00,73.7,54.0,29.96,NE,52,1.4,9.4,50,0.00,,,0.00,WUHU216DAVISVP2,2013-10-17 21:11:00,
2013-10-17 16:16:00,74.0,53.1,29.96,East,85,0.0,10.8,48,0.00,,,0.00,WUHU216DAVISVP2,2013-10-17 21:16:00,
2013-10-17 16:21:00,73.9,54.1,29.96,NNE,12,2.7,10.8,50,0.00,,,0.00,WUHU216DAVISVP2,2013-10-17 21:21:00,
2013-10-17 16:26:00,73.5,53.2,29.96,SE,144,0.0,8.0,49,0.00,,,0.00,WUHU216DAVISVP2,2013-10-17 21:26:00,
2013-10-17 16:31:00,73.3,55.1,29.96,ESE,111,2.7,8.0,53,0.00,,,0.00,WUHU216DAVISVP2,2013-10-17 21:31:00,
2013-10-17 16:36:00,73.2,54.6,29.96,NE,51,0.0,6.8,52,0.00,,,0.00,WUHU216DAVISVP2,2013-10-17 21:36:00,
2013-10-17 16:41:00,73.4,54.3,29.96,NE,56,2.7,6.8,51,0.00,,,0.00,WUHU216DAVISVP2,2013-10-17 21:41:00,
2013-10-17 16:46:00,73.7,54.5,29.96,NE,51,0.0,6.0,51,0.00,,,0.00,WUHU216DAVISVP2,2013-10-17 21:46:00,
2013-10-17 16:51:00,73.4,54.2,29.96,East,92,2.7,6.0,51,0.00,,,0.00,WUHU216DAVISVP2,2013-10-17 21:51:00,
2013-10-17 16:56:00,73.4,55.4,29.95,NE,49,1.4,5.4,53,0.00,,,0.00,WUHU216DAVISVP2,2013-10-17 21:56:00,
2013-10-17 17:01:00,73.7,55.6,29.95,NNE,31,1.4,9.4,53,0.00,,,0.00,WUHU216DAVISVP2,2013-10-17 22:01:00,
2013-10-17 17:06:00,73.7,53.4,29.95,East,87,0.0,9.4,49,0.00,,,0.00,WUHU216DAVISVP2,2013-10-17 22:06:00,
2013-10-17 17:11:00,73.4,53.6,29.95,ENE,67,2.7,6.0,50,0.00,,,0.00,WUHU216DAVISVP2,2013-10-17 22:11:00,
2013-10-17 17:16:00,73.3,54.1,29.95,NE,47,2.7,6.0,51,0.00,,,0.00,WUHU216DAVISVP2,2013-10-17 22:16:00,
2013-10-17 17:21:00,73.4,53.7,29.95,NE,39,4.1,5.4,50,0.00,,,0.00,WUHU216DAVISVP2,2013-10-17 22:21:00,
2013-10-17 17:26:00,73.4,54.3,29.95,NE,34,1.4,8.1,51,0.00,,,0.00,WUHU216DAVISVP2,2013-10-17 22:26:00,
2013-10-17 17:31:00,73.5,53.8,29.95,NNE,26,1.4,9.4,50,0.00,,,0.00,WUHU216DAVISVP2,2013-10-17 22:31:00,
2013-10-17 17:36:00,73.7,54.0,29.95,NNE,31,2.7,9.4,50,0.00,,,0.00,WUHU216DAVISVP2,2013-10-17 22:36:00,
2013-10-17 17:41:00,73.7,54.0,29.95,NE,49,0.0,7.0,50,0.00,,,0.00,WUHU216DAVISVP2,2013-10-17 22:41:00,
2013-10-17 17:46:00,73.5,53.8,29.95,NNE,33,0.0,6.0,50,0.00,,,0.00,WUHU216DAVISVP2,2013-10-17 22:46:00,
2013-10-17 17:51:00,72.9,53.7,29.95,SE,124,0.0,5.4,51,0.00,,,0.00,WUHU216DAVISVP2,2013-10-17 22:51:00,
2013-10-17 17:56:00,72.8,54.7,29.95,NE,37,0.0,5.0,53,0.00,,,0.00,WUHU216DAVISVP2,2013-10-17 22:56:00,
2013-10-17 18:01:00,72.6,54.1,29.95,NE,37,0.0,4.1,52,0.00,,,0.00,WUHU216DAVISVP2,2013-10-17 23:01:00,
2013-10-17 18:06:00,72.3,53.8,29.95,NE,38,0.0,4.0,52,0.00,,,0.00,WUHU216DAVISVP2,2013-10-17 23:06:00,
2013-10-17 18:11:00,72.0,53.5,29.95,NE,38,0.0,4.0,52,0.00,,,0.00,WUHU216DAVISVP2,2013-10-17 23:11:00,
2013-10-17 18:16:00,71.3,54.4,29.94,East,85,1.4,2.7,55,0.00,,,0.00,WUHU216DAVISVP2,2013-10-17 23:16:00,
2013-10-17 18:21:00,70.9,54.6,29.94,East,85,0.0,2.7,56,0.00,,,0.00,WUHU216DAVISVP2,2013-10-17 23:21:00,
2013-10-17 18:26:00,70.6,53.8,29.94,ENE,71,0.0,2.7,55,0.00,,,0.00,WUHU216DAVISVP2,2013-10-17 23:26:00,
2013-10-17 18:31:00,70.3,54.5,29.94,ENE,70,0.0,2.7,57,0.00,,,0.00,WUHU216DAVISVP2,2013-10-17 23:31:00,
2013-10-17 18:36:00,70.0,54.5,29.94,ENE,70,0.0,2.7,58,0.00,,,0.00,WUHU216DAVISVP2,2013-10-17 23:36:00,
2013-10-17 18:41:00,69.7,55.2,29.94,ENE,70,0.0,2.0,60,0.00,,,0.00,WUHU216DAVISVP2,2013-10-17 23:41:00,
2013-10-17 18:46:00,69.4,55.5,29.94,ENE,70,0.0,2.0,61,0.00,,,0.00,WUHU216DAVISVP2,2013-10-17 23:46:00,
2013-10-17 18:51:00,69.0,56.1,29.94,ENE,70,0.0,0.0,63,0.00,,,0.00,WUHU216DAVISVP2,2013-10-17 23:51:00,
2013-10-17 18:56:00,68.6,56.1,29.94,ENE,70,0.0,0.0,64,0.00,,,0.00,WUHU216DAVISVP2,2013-10-17 23:56:00,
2013-10-17 19:01:00,68.2,55.7,29.94,ENE,70,0.0,0.0,64,0.00,,,0.00,WUHU216DAVISVP2,2013-10-18 00:01:00,
2013-10-17 19:06:00,67.7,55.7,29.94,ENE,70,0.0,0.0,65,0.00,,,0.00,WUHU216DAVISVP2,2013-10-18 00:06:00,
2013-10-17 19:11:00,67.3,55.3,29.94,ENE,70,0.0,0.0,65,0.00,,,0.00,WUHU216DAVISVP2,2013-10-18 00:11:00,
2013-10-17 19:16:00,66.8,55.3,29.94,ENE,70,0.0,0.0,66,0.00,,,0.00,WUHU216DAVISVP2,2013-10-18 00:16:00,
2013-10-17 19:21:00,66.4,55.3,29.95,ENE,70,0.0,0.0,67,0.00,,,0.00,WUHU216DAVISVP2,2013-10-18 00:21:00,
2013-10-17 19:26:00,66.0,56.5,29.95,ENE,70,0.0,0.0,71,0.00,,,0.00,WUHU216DAVISVP2,2013-10-18 00:26:00,
2013-10-17 19:31:00,65.6,56.5,29.95,ENE,70,0.0,0.0,72,0.00,,,0.00,WUHU216DAVISVP2,2013-10-18 00:31:00,
2013-10-17 19:36:00,65.0,56.6,29.95,ENE,70,0.0,0.0,74,0.00,,,0.00,WUHU216DAVISVP2,2013-10-18 00:36:00,
2013-10-17 19:41:00,64.6,56.6,29.95,ENE,70,0.0,0.0,75,0.00,,,0.00,WUHU216DAVISVP2,2013-10-18 00:41:00,
2013-10-17 19:46:00,64.3,56.6,29.95,ENE,70,0.0,0.0,76,0.00,,,0.00,WUHU216DAVISVP2,2013-10-18 00:46:00,
2013-10-17 19:51:00,63.8,55.8,29.95,ENE,70,0.0,0.0,75,0.00,,,0.00,WUHU216DAVISVP2,2013-10-18 00:51:00,
2013-10-17 19:56:00,63.4,55.8,29.95,ENE,70,0.0,0.0,76,0.00,,,0.00,WUHU216DAVISVP2,2013-10-18 00:56:00,
2013-10-17 20:01:00,63.1,56.6,29.95,ENE,70,0.0,0.0,79,0.00,,,0.00,WUHU216DAVISVP2,2013-10-18 01:01:00,
2013-10-17 20:06:00,62.7,56.8,29.95,ENE,70,0.0,0.0,81,0.00,,,0.00,WUHU216DAVISVP2,2013-10-18 01:06:00,
2013-10-17 20:11:00,62.4,56.5,29.95,ENE,70,0.0,0.0,81,0.00,,,0.00,WUHU216DAVISVP2,2013-10-18 01:11:00,
2013-10-17 20:16:00,62.0,56.8,29.96,ENE,70,0.0,0.0,83,0.00,,,0.00,WUHU216DAVISVP2,2013-10-18 01:16:00,
2013-10-17 20:21:00,61.7,56.5,29.96,ENE,70,0.0,0.0,83,0.00,,,0.00,WUHU216DAVISVP2,2013-10-18 01:21:00,
2013-10-17 20:26:00,61.4,56.5,29.96,ENE,70,0.0,0.0,84,0.00,,,0.00,WUHU216DAVISVP2,2013-10-18 01:26:00,
2013-10-17 20:31:00,61.2,57.0,29.96,ENE,70,0.0,0.0,86,0.00,,,0.00,WUHU216DAVISVP2,2013-10-18 01:31:00,
2013-10-17 20:36:00,60.9,56.4,29.96,ENE,70,0.0,0.0,85,0.00,,,0.00,WUHU216DAVISVP2,2013-10-18 01:36:00,
2013-10-17 20:41:00,60.7,56.5,29.96,ENE,70,0.0,0.0,86,0.00,,,0.00,WUHU216DAVISVP2,2013-10-18 01:41:00,
2013-10-17 20:46:00,60.5,56.3,29.96,ENE,70,0.0,0.0,86,0.00,,,0.00,WUHU216DAVISVP2,2013-10-18 01:46:00,
2013-10-17 20:51:00,60.3,56.4,29.96,ENE,70,0.0,0.0,87,0.00,,,0.00,WUHU216DAVISVP2,2013-10-18 01:51:00,
2013-10-17 20:56:00,60.1,55.6,29.96,ENE,70,0.0,1.4,85,0.00,,,0.00,WUHU216DAVISVP2,2013-10-18 01:56:00,
2013-10-17 21:01:00,60.0,55.2,29.96,ENE,70,0.0,1.4,84,0.00,,,0.00,WUHU216DAVISVP2,2013-10-18 02:01:00,
2013-10-17 21:06:00,59.9,55.1,29.96,ENE,70,0.0,1.0,84,0.00,,,0.00,WUHU216DAVISVP2,2013-10-18 02:06:00,
2013-10-17 21:11:00,60.0,54.8,29.96,ENE,70,0.0,1.0,83,0.00,,,0.00,WUHU216DAVISVP2,2013-10-18 02:11:00,
2013-10-17 21:16:00,60.0,56.1,29.96,ENE,70,0.0,0.0,87,0.00,,,0.00,WUHU216DAVISVP2,2013-10-18 02:16:00,
2013-10-17 21:21:00,59.8,55.9,29.96,ENE,70,0.0,0.0,87,0.00,,,0.00,WUHU216DAVISVP2,2013-10-18 02:21:00,
2013-10-17 21:26:00,59.7,55.8,29.96,ENE,70,0.0,0.0,87,0.00,,,0.00,WUHU216DAVISVP2,2013-10-18 02:26:00,
2013-10-17 21:31:00,59.6,55.4,29.96,ENE,70,0.0,0.0,86,0.00,,,0.00,WUHU216DAVISVP2,2013-10-18 02:31:00,
2013-10-17 21:36:00,59.5,55.3,29.96,ENE,70,0.0,0.0,86,0.00,,,0.00,WUHU216DAVISVP2,2013-10-18 02:36:00,
2013-10-17 21:41:00,59.5,55.0,29.96,ENE,70,0.0,1.4,85,0.00,,,0.00,WUHU216DAVISVP2,2013-10-18 02:41:00,
2013-10-17 21:46:00,59.6,54.8,29.96,ENE,70,2.7,4.1,84,0.00,,,0.00,WUHU216DAVISVP2,2013-10-18 02:46:00,
2013-10-17 21:51:00,59.6,54.8,29.96,NNE,33,4.1,5.4,84,0.00,,,0.00,WUHU216DAVISVP2,2013-10-18 02:51:00,
2013-10-17 21:56:00,59.7,54.6,29.96,NNE,12,0.0,5.4,83,0.00,,,0.00,WUHU216DAVISVP2,2013-10-18 02:56:00,
2013-10-17 22:01:00,60.0,54.5,29.96,NNE,21,0.0,5.4,82,0.00,,,0.00,WUHU216DAVISVP2,2013-10-18 03:01:00,
2013-10-17 22:06:00,60.0,54.5,29.96,NNE,21,0.0,4.1,82,0.00,,,0.00,WUHU216DAVISVP2,2013-10-18 03:06:00,
2013-10-17 22:11:00,60.1,54.6,29.96,NNE,21,1.4,4.0,82,0.00,,,0.00,WUHU216DAVISVP2,2013-10-18 03:11:00,
2013-10-17 22:16:00,60.2,54.4,29.96,NNE,21,1.4,3.0,81,0.00,,,0.00,WUHU216DAVISVP2,2013-10-18 03:16:00,
2013-10-17 22:21:00,60.3,54.8,29.96,NNE,21,0.0,2.7,82,0.00,,,0.00,WUHU216DAVISVP2,2013-10-18 03:21:00,
2013-10-17 22:26:00,60.3,54.5,29.96,NNE,21,0.0,2.0,81,0.00,,,0.00,WUHU216DAVISVP2,2013-10-18 03:26:00,
2013-10-17 22:31:00,60.3,54.8,29.97,NNE,21,0.0,2.0,82,0.00,,,0.00,WUHU216DAVISVP2,2013-10-18 03:31:00,
2013-10-17 22:36:00,60.2,54.4,29.96,NNE,21,0.0,1.0,81,0.00,,,0.00,WUHU216DAVISVP2,2013-10-18 03:36:00,
2013-10-17 22:41:00,60.3,55.1,29.97,NNE,21,0.0,0.0,83,0.00,,,0.00,WUHU216DAVISVP2,2013-10-18 03:41:00,
2013-10-17 22:46:00,60.1,55.3,29.97,NNE,21,0.0,0.0,84,0.00,,,0.00,WUHU216DAVISVP2,2013-10-18 03:46:00,
2013-10-17 22:51:00,59.8,55.6,29.97,NNE,21,0.0,0.0,86,0.00,,,0.00,WUHU216DAVISVP2,2013-10-18 03:51:00,
2013-10-17 22:56:00,59.5,55.0,29.97,NNE,21,0.0,0.0,85,0.00,,,0.00,WUHU216DAVISVP2,2013-10-18 03:56:00,
2013-10-17 23:01:00,59.5,55.3,29.97,NNE,21,0.0,0.0,86,0.00,,,0.00,WUHU216DAVISVP2,2013-10-18 04:01:00,
2013-10-17 23:06:00,59.4,55.5,29.97,NNE,21,0.0,0.0,87,0.00,,,0.00,WUHU216DAVISVP2,2013-10-18 04:06:00,
2013-10-17 23:11:00,59.2,55.3,29.96,NNE,21,0.0,0.0,87,0.00,,,0.00,WUHU216DAVISVP2,2013-10-18 04:11:00,
2013-10-17 23:16:00,59.2,55.6,29.97,NNE,21,0.0,0.0,88,0.00,,,0.00,WUHU216DAVISVP2,2013-10-18 04:16:00,
2013-10-17 23:21:00,59.0,55.2,29.97,NNE,21,0.0,0.0,87,0.00,,,0.00,WUHU216DAVISVP2,2013-10-18 04:21:00,
2013-10-17 23:26:00,59.0,55.1,29.97,NNE,21,0.0,0.0,87,0.00,,,0.00,WUHU216DAVISVP2,2013-10-18 04:26:00,
2013-10-17 23:31:00,59.0,55.4,29.97,NNE,21,0.0,0.0,88,0.00,,,0.00,WUHU216DAVISVP2,2013-10-18 04:31:00,
2013-10-17 23:36:00,58.9,55.0,29.96,NNE,21,0.0,1.4,87,0.00,,,0.00,WUHU216DAVISVP2,2013-10-18 04:36:00,
2013-10-17 23:41:00,58.8,54.6,29.96,NNE,21,0.0,1.4,86,0.00,,,0.00,WUHU216DAVISVP2,2013-10-18 04:41:00,
2013-10-17 23:46:00,58.8,54.7,29.96,NNE,21,0.0,1.0,86,0.00,,,0.00,WUHU216DAVISVP2,2013-10-18 04:46:00,
2013-10-17 23:51:00,59.1,54.9,29.96,NNE,21,0.0,1.0,86,0.00,,,0.00,WUHU216DAVISVP2,2013-10-18 04:51:00,
2013-10-17 23:56:00,59.2,55.0,29.96,NNE,21,1.4,2.7,86,0.00,,,0.00,WUHU216DAVISVP2,2013-10-18 04:56:00,